www.pogodaiklimat.ru

Архив погоды в Неллуру (Андхра-Прадеш, Индия)

Время
(UTC), дата
21 5.07
00 6.07
03 6.07
06 6.07
09 6.07
12 6.07
15 6.07
18 6.07
21 6.07
00 7.07
03 7.07
06 7.07
09 7.07
12 7.07
15 7.07
18 7.07
21 7.07
00 8.07
03 8.07
06 8.07
09 8.07
12 8.07
15 8.07
18 8.07
21 8.07
00 9.07
03 9.07
06 9.07
09 9.07
12 9.07
15 9.07
18 9.07
21 9.07
00 10.07
03 10.07
06 10.07
09 10.07
12 10.07
15 10.07
18 10.07
21 10.07
00 11.07
03 11.07
06 11.07
09 11.07
12 11.07
15 11.07
18 11.07
21 11.07
00 12.07
03 12.07
06 12.07
09 12.07
12 12.07
15 12.07
Ветер
(напр.,м/с)
Видим. Явления Облачность Т
(С)
Тd
(С)
f
(%)
Тe
(С)
Тes
(С)
Комфортность P
(гПа)
Po
(гПа)
Тmin
(С)
Tmax
(С)
R
(мм)
R24
(мм)
S
(см)
штиль 0 4000 м слаб. дождь 10/5 600 м
[Sc diur, vesp Ac As Cs]
+25.0 +23.5 91 +34 +34 очень душно 1003.8 1001.1 26
штиль 0 4000 м дождь 10/5 600 м
[Sc diur, vesp Ac As Cs]
+25.0 +23.5 91 +34 +34 очень душно 1004.3 1001.6 28
Ю 2 4000 м {дождь} 10/5 600 м
[Cu Sc Ac As]
+26.6 +25.7 95 +39 +40 очень душно 1004.4 1001.8 +24.7 +37.4 29
Ю 2 10 км {дождь} 10/5 600 м
[Cu Sc Ac As Cs]
+28.8 +26.6 88 +45 +50 очень душно 1004.8 1002.2
ЮЗ 2 10 км 10/5 600 м
[Cu Sc Ac As]
+30.0 +25.1 75 +43 +46 очень душно 1002.8 1000.2
Ю 1 10 км 10/5 600 м
[Cu Sc Ac As Cs]
+30.0 +25.7 78 +45 +45 очень душно 1001.3 998.7 +30.4
Ю 2 4000 м 10/5 600 м
[Cu Sc Ac As Cs]
+29.0 +25.7 82 +43 +43 очень душно 1003.3 1000.7
ЮВ 2 4000 м 10/5 600 м
[Cu Sc Ac trans Cs]
+28.0 +25.7 87 +41 +41 очень душно 1004.4 1001.8
Ю 2 4000 м 9/4 600 м
[Sc Ac trans Ci fib]
+27.0 +25.5 92 +40 +40 очень душно 1004.0 1001.4
С 1 4000 м 10/4 600 м
[Sc Ac trans Ci sp]
+27.7 +25.2 86 +40 +40 очень душно 1004.2 1001.6
Ю 1 10 км 9/4 600 м
[Sc Ac trans Ci sp]
+29.0 +26.1 84 +44 +47 очень душно 1004.4 1001.8 +27.4 +30.3
З 1 10 км 4/3 600 м
[Sc Ac trans]
+32.6 +22.0 54 +41 +57 очень душно 1004.2 1001.6
З 2 10 км 8/5 600 м
[Cu Sc Ci sp]
+36.0 +25.3 54 +50 +57 опасность перегрева 1002.0 999.4
ЮЗ 4 4000 м слаб. морось 10/5 600 м
[Cu Sc Ac As]
+32.2 +23.5 60 +43 +43 очень душно 1002.2 999.6 +36.3 0.0
Ю 1 4000 м {гроза, дождь} 10/5 600 м
[Cu Sc Ac As]
+27.8 +26.1 90 +42 +42 очень душно 1003.8 1001.2 9
Ю 2 4000 м {гроза, дождь} 10/5 600 м
[Cu Sc Ac As]
+27.0 +25.0 89 +39 +39 очень душно 1004.2 1001.6 9
Ю 1 4000 м 8/5 600 м
[Sc diur, vesp Ac As]
+27.0 +25.2 90 +39 +39 очень душно 1002.6 1000.0 9
штиль 0 4000 м 8/4 600 м
[Sc Ac As]
+27.0 +25.0 89 +39 +39 очень душно 1002.1 999.5 9
Ю 1 10 км 9/3 600 м
[Sc Ac As Cs]
+29.4 +24.5 75 +42 +45 очень душно 1003.5 1000.9 +26.6 +36.3 9
З 1 10 км 6/3 600 м
[Sc diur, vesp Ac As Ci sp]
+33.4 +23.9 58 +45 +59 очень душно 1003.2 1000.6
З 2 10 км 8/3 600 м
[Sc diur, vesp Ac As Cs]
+35.4 +23.3 50 +46 +53 опасность перегрева 1001.2 998.6
Ю 1 10 км 5/1 600 м
[Sc Ac trans Ci sp]
+34.2 +24.9 58 +47 +48 очень душно 1000.2 997.6 +36.1
Ю 1 4000 м 5/1 600 м
[Sc Ac trans Ci sp]
+32.4 +26.3 70 +49 +49 очень душно 1002.0 999.4
З 1 4000 м в посл. час дождь 10/4 600 м
[Sc diur, vesp Ac As Cs]
+30.0 +25.7 78 +45 +45 очень душно 1004.2 1001.6 0.2
штиль 0 4000 м 8/3 600 м
[Sc diur, vesp Ac As Cs]
+28.4 +25.5 84 +42 +42 очень душно 1002.5 999.9 0.2
штиль 0 4000 м 8/3 600 м
[Sc diur, vesp Ac As Cs]
+28.0 +25.7 87 +41 +41 очень душно 1003.1 1000.5 0.2
штиль 0 10 км 9/4 600 м
[Sc Ac As Cs]
+29.0 +26.1 84 +44 +48 очень душно 1005.1 1002.5 +27.7 +36.1 0.2
Ю 2 10 км 10/5 600 м
[Sc Ac As Cs]
+32.0 +23.6 61 +43 +49 очень душно 1004.8 1002.2
З 2 10 км 10/5 600 м
[Sc diur, vesp Ac As Cs]
+33.0 +23.8 59 +45 +49 очень душно 1003.9 1001.3
В 3 10 км 10/4 600 м
[Sc Ac As Cs]
+32.4 +24.7 64 +45 +46 очень душно 1003.0 1000.4 +33.5
ЮВ 3 4000 м 8/4 600 м
[Sc Ci sp]
+30.0 +25.7 78 +45 +45 очень душно 1005.0 1002.4
ЮВ 2 4000 м 9/5 600 м
[Sc Ci sp]
+29.4 +26.6 85 +45 +45 очень душно 1005.6 1003.0
Ю 1 4000 м 6/3 600 м
[Sc Ci sp]
+29.2 +26.4 85 +45 +45 очень душно 1005.4 1002.8
Ю 1 4000 м 4/1 600 м
[Sc Ci fib]
+28.6 +25.7 84 +42 +42 очень душно 1006.4 1003.8
З 2 10 км 3/1 600 м
[Sc Ci sp]
+32.4 +23.4 59 +43 +51 очень душно 1007.3 1004.7 +28.0 +33.5
З 3 10 км 3/1 600 м
[Sc Ci fib]
+35.2 +21.7 46 +43 +60 опасность перегрева 1006.2 1003.6
З 3 10 км 3/3 600 м
[Sc diur, vesp]
+36.8 +23.0 45 +46 +56 опасность перегрева 1004.8 1002.2
В 3 10 км 3/1 600 м
[Sc Ci fib]
+34.8 +25.2 58 +49 +50 очень душно 1003.8 1001.2 +37.9
В 2 4000 м 3/1 600 м
[Sc Ci fib]
+31.6 +26.0 72 +47 +47 очень душно 1005.7 1003.1
В 3 2000 м гроза, ливневой дождь 10/5 600 м
[Cb cap Ac As Cs]
+27.6 +26.1 92 +42 +42 очень душно 1007.6 1005.0 8
Ю 2 4000 м {гроза, дождь} 9/4 600 м
[Sc diur, vesp Ac As Cs]
+26.2 +25.6 97 +39 +39 очень душно 1006.6 1004.0 18
штиль 0 4000 м слаб. дождь 9/4 600 м
[Sc diur, vesp Ac As Cs]
+26.4 +25.8 97 +39 +39 очень душно 1007.4 1004.8 18
ЮЗ 2 4000 м {дождь} 10/5 600 м
[Cu Sc Ac As]
+27.4 +25.9 92 +41 +42 очень душно 1007.6 1005.0 +25.7 +37.9 19
ЮЗ 2 10 км {дождь} 10/5 600 м
[Sc As trans Cs]
+30.2 +25.9 78 +45 +51 очень душно 1005.9 1003.3
ЮЗ 3 10 км 8/4 600 м
[Sc Ci sp]
+34.0 +25.3 61 +48 +56 очень душно 1003.2 1000.6
ЮЗ 2 10 км 8/4 600 м
[Sc Ci sp]
+34.6 +24.4 56 +47 +48 очень душно 1002.1 999.5 +35.5
ЮВ 2 4000 м 4/4 600 м
[Sc]
+30.8 +27.4 82 +49 +49 очень душно 1003.7 1001.1
В 1 4000 м 4/3 600 м
[Sc Ac trans]
+29.4 +26.6 85 +45 +45 очень душно 1004.2 1001.6
Ю 2 4000 м 5/1 600 м
[Sc Ac trans]
+28.8 +26.5 87 +44 +44 очень душно 1002.8 1000.2
Ю 1 4000 м 8/3 600 м
[Sc Ac trans]
+28.4 +25.8 86 +42 +42 очень душно 1003.5 1000.9
З 2 10 км 3/1 600 м
[Sc Ci fib]
+31.0 +25.3 72 +45 +53 очень душно 1004.9 1002.3 +28.0 +35.5
З 3 10 км 5/3 600 м
[Sc diur, vesp Ac trans Ci sp]
+34.8 +23.6 52 +46 +57 очень душно 1004.2 1001.6
З 3 10 км 8/3 600 м
[Sc diur, vesp Ac trans Ci sp]
+36.6 +24.4 50 +49 +55 опасность перегрева 1001.4 998.8
ЮВ 2 10 км 6/3 600 м
[Sc diur, vesp Ac trans Ci sp]
+34.8 +25.2 58 +49 +50 очень душно 1000.5 997.9 +37.5
З 2 4000 м 9/5 600 м
[Cu Sc Ac As Cs]
+30.6 +26.4 78 +47 +47 очень душно 1003.1 1000.5
Местоположение метеостанции Неллуру (Андхра-Прадеш, Индия): широта 14.45 долгота 79.98 высота над уровнем моря 20 м.
В архиве по умолчанию представлена погода в Неллуру за последнюю неделю. Архивные данные за месяц целиком и за предыдущие месяцы, начиная с января 2011 года, Вы можете получить, выбрав интересующий диапазон дат из раскрывающегося списка и нажав кнопку "Найти!".
*Определитесь, кто Вы:
Внимание! Время в таблицах - всемирное. Для получения местного времени необходимо прибавить поправку, которая равна 5.5 ч.
Некоторые строки с данными для отдельных станций могут быть выделены курсивом. Это означает, что фактические данные отсутствуют по различным причинам, а приведенные значения являются расчетными модельными данными для данного пункта наблюдений.
Смотрите также архив погоды в соседних городах и на ближайших метеорологических станциях:
Партнеры нашего сайта:      
Пояснения к столбцам:
  • Ветер - указаны скорость ветра в м/с - средняя за 10 мин, порывы в срок и между сроками (в фигурных скобках) и направление, откуда дует ветер: С - северный,
  • СВ - северо-восточный, В - восточный, ЮВ - юго-восточный, Ю - южный, ЮЗ - юго-западный, З - западный, СЗ - северо-западный.
  • Видимость - горизонтальная дальность видимости в метрах или километрах. При видимости от 1 до 10 км при отсутствии осадков обычно наблюдается дымка, при ухудшении видимости до 1 км и менее - туман. В сухую погоду видимость может ухудшаться дымом, пылью или мглою.
  • Явления - указаны атмосферные явления, наблюдавшиеся в срок или в последний час перед сроком; фигурными скобками обозначены явления, наблюдавшиеся между сроками (за 1-3 часа до срока); квадратными скобками обозначены град или гололедные отложения с указанием их диаметра в мм.
  • Облачность - указаны через наклонную черту общая и нижняя облачность в баллах и высота нижней границы облаков в метрах; квадратными скобками обозначены формы облаков: Ci - перистые, Cs - перисто-слоистые, Cc - перисто-кучевые, Ac - высококучевые, As - высокослоистые, Sc - слоисто-кучевые, Ns - слоисто-дождевые, Cu - кучевые, Cb - кучево-дождевые. Подробнее классификацию облаков см. в Атласе облаков (PDF).
  • T - Температура воздуха - температура, измеренная на высоте 2 м над землей.
  • Td - Температура точки росы - температура, при понижении до которой содержащийся в воздухе водяной пар достигнет насыщения.
  • f - Относительная влажность воздуха - влажноcть воздуха, измеренная на высоте 2 м над землей.
  • Te - Эффективная температура - температура, которую ощущает одетый по сезону человек в тени. Характеристика душности погоды. При расчете учитывается влияние влажности воздуха и скорости ветра на теплоощущения человека.
  • Tes - Эффективная температура на солнце - температура, которую ощущает человек, с поправкой на солнечный нагрев. Характеристика знойности погоды. Зависит от высоты солнца над горизонтом, облачности и скорости ветра. Ночью, в пасмурную погоду, а также при ветре 12 м/с и более поправка равна нулю.
  • P - Атмосферное давление - приведенное к уровню моря атмосферное давление.
  • Po - Атмосферное давление - измеренное на уровне метеостанции атмосферное давление.
  • Tmin - Минимальная температура - минимум температуры воздуха на высоте 2 м над землей.
  • Tmax - Максимальная температура - максимум температуры воздуха на высоте 2 м над землей.
  • R - Количество осадков - Количество выпавших осадков за период времени, мм. При наведении курсора мыши на число - период времени, за который выпало указанное количество осадков.
  • R24 - Количество осадков - Количество выпавших осадков за 24 часа, мм.
  • S - Снежный покров - Высота снежного покрова, см. При наведении курсора мыши на число - состояние снежного покрова и степень покрытия местности в баллах.